TimePST,TemperatureF,Dew PointF,Humidity,Sea Level PressureIn,VisibilityMPH,Wind Direction,Wind SpeedMPH,Gust SpeedMPH,PrecipitationIn,Events,Conditions,WindDirDegrees,DateUTC
12:15 AM,41.0,32.0,70,29.84,10.0,SSW,10.4,-,N/A,Rain,Light Rain,210,2012-11-17 08:15:00
12:35 AM,41.0,32.0,70,29.82,10.0,SSE,9.2,-,N/A,,Partly Cloudy,160,2012-11-17 08:35:00
12:55 AM,41.0,32.0,70,29.82,10.0,SSE,6.9,-,N/A,,Clear,150,2012-11-17 08:55:00
1:15 AM,41.0,32.0,70,29.82,10.0,South,6.9,-,N/A,,Partly Cloudy,180,2012-11-17 09:15:00
1:35 AM,39.2,32.0,75,29.81,10.0,SW,3.5,-,N/A,,Clear,220,2012-11-17 09:35:00
1:55 AM,39.2,32.0,75,29.80,10.0,South,6.9,-,N/A,,Clear,190,2012-11-17 09:55:00
2:15 AM,39.2,32.0,75,29.80,10.0,SSW,5.8,-,N/A,,Scattered Clouds,200,2012-11-17 10:15:00
2:35 AM,39.2,32.0,75,29.80,10.0,SW,5.8,-,N/A,,Partly Cloudy,220,2012-11-17 10:35:00
2:55 AM,39.2,32.0,75,29.79,10.0,SW,8.1,-,N/A,,Clear,230,2012-11-17 10:55:00
3:15 AM,41.0,32.0,70,29.78,10.0,South,5.8,-,N/A,,Scattered Clouds,180,2012-11-17 11:15:00
3:55 AM,41.0,32.0,70,29.76,10.0,South,4.6,-,N/A,,Partly Cloudy,170,2012-11-17 11:55:00
4:15 AM,39.2,32.0,75,29.75,10.0,South,5.8,-,N/A,,Clear,180,2012-11-17 12:15:00
4:35 AM,37.4,30.2,75,29.75,10.0,SSW,6.9,-,N/A,,Clear,200,2012-11-17 12:35:00
4:55 AM,37.4,32.0,81,29.74,10.0,South,4.6,-,N/A,,Clear,190,2012-11-17 12:55:00
5:15 AM,37.4,30.2,75,29.74,10.0,SSW,3.5,-,N/A,,Clear,210,2012-11-17 13:15:00
5:35 AM,37.4,28.4,70,29.73,10.0,Calm,Calm,-,N/A,,Clear,0,2012-11-17 13:35:00
5:55 AM,33.8,28.4,81,29.72,10.0,SSW,4.6,-,N/A,,Clear,200,2012-11-17 13:55:00
6:15 AM,37.4,32.0,81,29.72,10.0,SSW,3.5,-,N/A,,Clear,210,2012-11-17 14:15:00
6:35 AM,35.6,28.4,75,29.71,10.0,South,5.8,-,N/A,,Clear,190,2012-11-17 14:35:00
6:55 AM,35.6,28.4,75,29.71,10.0,Calm,Calm,-,N/A,,Clear,0,2012-11-17 14:55:00
7:15 AM,37.4,30.2,75,29.71,10.0,SW,5.8,-,N/A,,Scattered Clouds,230,2012-11-17 15:15:00
7:35 AM,39.2,32.0,75,29.70,10.0,South,5.8,-,N/A,,Partly Cloudy,180,2012-11-17 15:35:00
8:15 AM,37.4,32.0,81,29.70,10.0,WSW,3.5,-,N/A,,Mostly Cloudy,240,2012-11-17 16:15:00
8:35 AM,41.0,32.0,70,29.69,10.0,South,3.5,-,N/A,,Overcast,190,2012-11-17 16:35:00
9:55 AM,48.2,32.0,54,29.66,10.0,SSE,9.2,16.1,N/A,,Mostly Cloudy,150,2012-11-17 17:55:00
10:15 AM,50.0,32.0,50,29.65,10.0,SSE,8.1,-,N/A,,Mostly Cloudy,150,2012-11-17 18:15:00
10:35 AM,50.0,32.0,50,29.66,10.0,South,6.9,-,N/A,,Mostly Cloudy,170,2012-11-17 18:35:00
10:55 AM,50.0,32.0,50,29.65,10.0,SE,8.1,-,N/A,,Mostly Cloudy,140,2012-11-17 18:55:00
11:15 AM,50.0,32.0,50,29.65,10.0,South,9.2,-,N/A,,Scattered Clouds,170,2012-11-17 19:15:00
11:55 AM,50.0,33.8,54,29.63,9.0,SSW,16.1,-,N/A,Rain,Light Rain,210,2012-11-17 19:55:00
12:15 PM,50.0,32.0,50,29.62,10.0,SW,12.7,-,N/A,,Clear,220,2012-11-17 20:15:00
12:55 PM,51.8,32.0,47,29.62,8.0,SW,12.7,19.6,N/A,,Clear,230,2012-11-17 20:55:00
1:15 PM,51.8,32.0,47,29.60,10.0,SSW,16.1,28.8,N/A,,Clear,200,2012-11-17 21:15:00
1:35 PM,50.0,32.0,50,29.59,10.0,South,19.6,25.3,N/A,,Clear,190,2012-11-17 21:35:00
2:15 PM,51.8,32.0,47,29.57,10.0,SSW,16.1,26.5,N/A,,Partly Cloudy,200,2012-11-17 22:15:00
2:35 PM,51.8,32.0,47,29.57,10.0,SSW,15.0,20.7,N/A,,Partly Cloudy,200,2012-11-17 22:35:00
2:55 PM,53.6,28.4,38,29.57,10.0,SSW,16.1,20.7,N/A,,Clear,200,2012-11-17 22:55:00
3:15 PM,51.8,28.4,41,29.58,10.0,SSW,11.5,20.7,N/A,,Clear,210,2012-11-17 23:15:00
3:35 PM,50.0,28.4,43,29.58,10.0,WSW,9.2,-,N/A,,Scattered Clouds,240,2012-11-17 23:35:00
3:55 PM,41.0,26.6,57,29.61,7.0,NW,15.0,21.9,N/A,Rain,Light Rain,320,2012-11-17 23:55:00
4:15 PM,37.4,30.2,75,29.63,3.0,NW,6.9,-,0.03,Rain,Light Rain,310,2012-11-18 00:15:00
4:35 PM,37.4,32.0,81,29.64,4.0,Calm,Calm,-,0.06,Rain,Light Rain,0,2012-11-18 00:35:00
4:55 PM,37.4,32.0,81,29.66,10.0,Calm,Calm,-,0.06,,Mostly Cloudy,0,2012-11-18 00:55:00
5:15 PM,37.4,30.2,75,29.67,10.0,SW,6.9,-,N/A,,Scattered Clouds,220,2012-11-18 01:15:00
5:35 PM,39.2,28.4,65,29.68,10.0,SSW,9.2,-,N/A,,Scattered Clouds,210,2012-11-18 01:35:00
5:55 PM,37.4,28.4,70,29.68,10.0,SSW,12.7,-,N/A,,Scattered Clouds,200,2012-11-18 01:55:00
6:15 PM,37.4,28.4,70,29.67,10.0,SSW,9.2,-,N/A,,Partly Cloudy,200,2012-11-18 02:15:00
6:35 PM,37.4,26.6,65,29.68,10.0,SSW,12.7,-,N/A,,Clear,200,2012-11-18 02:35:00
6:55 PM,37.4,26.6,65,29.69,10.0,WSW,12.7,20.7,N/A,,Clear,250,2012-11-18 02:55:00
7:15 PM,37.4,26.6,65,29.70,10.0,SW,12.7,20.7,N/A,,Clear,230,2012-11-18 03:15:00
7:35 PM,37.4,26.6,65,29.71,10.0,SSW,15.0,-,N/A,,Clear,210,2012-11-18 03:35:00
7:55 PM,35.6,24.8,65,29.72,10.0,SW,9.2,-,N/A,,Clear,220,2012-11-18 03:55:00
8:15 PM,35.6,24.8,65,29.74,10.0,SSW,15.0,-,N/A,,Partly Cloudy,200,2012-11-18 04:15:00
8:35 PM,35.6,24.8,65,29.75,10.0,SSW,19.6,25.3,N/A,,Scattered Clouds,200,2012-11-18 04:35:00
8:55 PM,35.6,23.0,60,29.75,10.0,SSW,17.3,26.5,N/A,,Clear,210,2012-11-18 04:55:00
9:35 PM,35.6,23.0,60,29.78,10.0,SSW,20.7,26.5,N/A,,Clear,210,2012-11-18 05:35:00
9:55 PM,35.6,23.0,60,29.80,10.0,SSW,18.4,-,N/A,,Clear,210,2012-11-18 05:55:00
10:15 PM,35.6,23.0,60,29.81,10.0,SW,5.8,-,N/A,,Clear,230,2012-11-18 06:15:00
10:35 PM,33.8,23.0,65,29.81,10.0,SW,3.5,-,N/A,,Clear,230,2012-11-18 06:35:00
10:55 PM,33.8,21.2,60,29.82,10.0,Calm,Calm,-,N/A,,Clear,0,2012-11-18 06:55:00
11:15 PM,32.0,21.2,64,29.83,10.0,SSE,5.8,-,N/A,,Partly Cloudy,150,2012-11-18 07:15:00
11:35 PM,32.0,19.4,60,29.84,10.0,SE,6.9,-,N/A,,Clear,130,2012-11-18 07:35:00
11:55 PM,33.8,19.4,56,29.84,10.0,South,10.4,-,N/A,,Clear,180,2012-11-18 07:55:00